Home   Weather   El Calafate   Past weeks
Flag for Argentina

Past Weather in El Calafate, Santa Cruz, Argentina — Yesterday and Last 2 Weeks

Now
48 °F

Clear.


Feels Like: 44 °F
Forecast: N/A
Wind: 9 mph from West

Location: Rio Gallegos Aerodrome

Current Time: May 21, 2019 at 8:36:56 pm

Latest Report: May 21, 2019 at 8:00 pm


Visibility: 10 mi

Pressure: 29.77 "Hg

Humidity: 66%

Dew Point: 37 °F

Location of El CalafateLocation

Past Weather in El Calafate — Graph

°F

El Calafate Temperature Yesterday

Maximum temperature yesterday: 54 °F (at 3:00 pm)
Minimum temperature yesterday: 39 °F (at 12:00 am)
Average temperature yesterday: 47 °F

High & Low Weather Summary for the Past Weeks

 TemperatureHumidityPressure
High61 °F (May 16, 3:00 pm)93% (May 6, 10:00 pm)30.07 "Hg (May 6, 10:00 pm)
Low28 °F (May 8, 8:00 am)31% (May 13, 4:00 pm)28.77 "Hg (May 12, 5:00 am)
Average44 °F66%29.59 "Hg
* Reported May 6 7:00 pm — May 21 7:00 pm, El Calafate. Weather by CustomWeather, © 2019

Note: Actual official high and low records may vary slightly from our data, if they occured in-between our weather recording intervals... More about our weather records

Advertising

El Calafate Weather History for the Previous 24 Hours

Scroll right to see more
 ConditionsComfort  
Time TempWeatherWind HumidityBarometerVisibility
7:00 pm
Tue, May 21
48 °FClear.10 mph62%29.77 "Hg10 mi
6:00 pm52 °FClear.8 mph50%29.80 "Hg10 mi
5:00 pm52 °FSunny.10 mph47%29.80 "Hg10 mi
4:00 pm50 °FSunny.7 mph54%29.83 "Hg10 mi
3:00 pm48 °FPartly sunny.7 mph54%29.83 "HgN/A
2:00 pm48 °FBroken clouds.7 mph50%29.86 "HgN/A
1:00 pm48 °FBroken clouds.10 mph43%29.89 "HgN/A
12:00 pm48 °FPartly sunny.16 mph40%29.89 "HgN/A
11:00 am45 °FPartly sunny.15 mph49%29.92 "HgN/A
10:00 am45 °FPartly sunny.10 mph53%29.95 "HgN/A
9:00 am45 °FPassing clouds.10 mph61%29.98 "HgN/A
8:00 am43 °FLight rain. Mostly cloudy.3 mph71%30.01 "HgN/A
7:00 am43 °FMostly cloudy.7 mph61%30.04 "HgN/A
6:00 am43 °FOvercast.3 mph66%30.04 "HgN/A
5:00 am43 °FClear.7 mph66%30.04 "Hg10 mi
4:00 am45 °FClear.10 mph61%30.07 "Hg10 mi
3:00 am43 °FClear.10 mph66%30.07 "Hg10 mi
2:00 am43 °FPassing clouds.9 mph66%30.07 "HgN/A
1:00 am41 °FPassing clouds.3 mph70%30.07 "HgN/A
12:00 am41 °FMostly cloudy.13 mph70%30.07 "HgN/A
11:00 pm
Mon, May 20
45 °FMostly cloudy.9 mph66%30.07 "HgN/A
10:00 pm45 °FClear.15 mph66%30.07 "Hg10 mi
9:00 pm46 °FClear.20 mph53%30.04 "Hg10 mi
8:00 pm46 °FClear.25 mph53%30.04 "Hg10 mi
Weather by CustomWeather, © 2019

See weather overview